Location: Newark
(50.2306°N, 14.0814°E)
Time: 05:21:47
(UTC+00:00)

N. Korean satellite - Pass Details

Date: 15 December 2019
Orbit: 454 x 508 km, 97.2° (Epoch: 20 January)

Event Time Altitude Azimuth Distance (km) Brightness Sun altitude
Rises 16:37:56 0° 190° (S) 2,596 10.7 -14.5°
Reaches altitude 10° 16:40:12 10° 202° (SSW) 1,712 9.9 -14.8°
Maximum altitude 16:43:29 30° 264° (W) 930 8.8 -15.3°
Drops below altitude 10° 16:46:45 10° 327° (NNW) 1,705 9.5 -15.8°
Sets 16:49:01 0° 339° (NNW) 2,584 10.3 -16.2°
